sat.trackr.live / text

‹ back to catalog

STARLINK-30488

NORAD 57931 · 2023-147U

PAYLOAD ACTIVE UNKNOWN

§ Identity

Operator
Country
US
Launch date
2023-09-24
Launch site
AFETR
Launch vehicle
Mass (kg)
RCS (m²)

Purposes: comms

External: N2YO · Heavens-Above · Gunter

§ Orbital elements

Epoch: 2026-09-20T04:38:15.253440Z

Period
94.27 min
Inclination
43.0059°
Eccentricity
0.0001740
Mean motion
15.27574002 rev/d
Perigee alt
481.9 km
Apogee alt
484.3 km
Semi-major
6,861.2 km
B*
1.0438e-5
RAAN
310.2576°
Arg perigee
281.2949°
Mean anomaly
78.7707°
Rev number
16,633

§ Raw data

STARLINK-304881 57931U 23147U   26263.19323210  .00000025  00000+0  10438-4 0  99982 57931  43.0059 310.2576 0001740 281.2949  78.7707 15.27574002166337

JSON: /api/v1/satellites/57931 · /tle

For live sub-satellite position, see the globe view (requires WebGL).

§ Visibility from observer

Set your observer location to see the next 7 days of passes ≥ 10°. The values pass through the URL so the page stays shareable.

No JS? Fill the form by hand. The geolocation button needs JavaScript.